Погода Баево

Погода Баево : погода сейчас, прогноз погоды и архив. Всё, что Вы хотите узнать о погоде Баево!

Поиск расширенной информации на нашем сайте:

Другие новости

Новости СМИ2

Главная страница сайта

Новости сайта

03.07.2017

Напоминаем, что на нашем специализированном сайте Метеоцентр.Азия вы можете получить высокодетализированные автоматические прогнозы погоды по пунктам России, СНГ и мира в авиационном формате (включающие направление и скорость ветра, видимость, явления погоды, количество и форму облачности, нижнюю и верхнюю границу облачности).


Погода Баево - сегодня

Время (UTC), дата Ветер
(°,м/с) 
Видим.   Явления Облачность Т
(°С)
Тd
(°С)
f(%) Тe
(°С)
Pmin
(гПа)
dP
(гПа)
Po
(мм)
O2
(г/м3)
Тmin Tmax R s Состояние
почвы
21 17.08.17 тихо ()   20000 м    10/0 средняя, верхняя 
[Ac As|Ci fib]
+14.2 +12.2 88 +18  1014.9  -0.9  750  285           
00 18.08.17 тихо ()   10 км    10/8 1000 м средняя, верхняя 
[Sc|Ac As|Ci fib]
+13.3 +12.1 92 +17  1015.1  0.1  750  286  +12.3        влажная 
03 18.08.17 360 (С) 10 км    10/8 1000 м средняя, верхняя 
[Sc|Ac trans|Ci fib]
+16.2 +13.5 84 +24  1015.4  0.5  751  283           
06 18.08.17 310 (СЗ) 10 км  слаб. ливневой дождь  10/10 600 м кучево-дожд. 
[Cb cap]
+16.9 +14.6 86 +26  1015.7  0.3  751  282           
09 18.08.17 010 (С) 10 км  слаб. ливневой дождь  10/10 600 м кучево-дожд. 
[Cb cap]
+16.8 +14 84 +24  1015.5  -0.2  751  282           
12 18.08.17 360 (С) 10 км  {ливн. осадки}  10/6 600 м кучево-дожд., средняя, верхняя 
[Cb cap|Ac trans|Ci]
+17.5 +12.6 73 +23  1016  0.5  751  282    +19.3     
15 18.08.17 340 (С) 10 км    10/5 600 м кучево-дожд., средняя, верхняя 
[Cb cap|Ac trans|Ci fib]
+13.2 +11.2 88 +16  1017.4  1.2  752  287           
18 18.08.17 300 (СЗ) 10 км    3/3 1000 м 
[Sc]
+10.2 +8.9 92 +11  1017.7  0.1  752  291           
21 18.08.17 310 (СЗ) 10 км    ясно 
+8.5 +7.5 93 +9  1017.9  0.1  752  293           
00 19.08.17 280 (З) 10 км    3/0 средняя 
[Ac lent]
+8.3 +7.4 94 +8  1018.7  0.8  753  293  +7.8        влажная 
03 19.08.17 310 (СЗ) 20000 м    10/6 1000 м средняя 
[Sc|Ac As]
+14.7 +11.4 81 +18  1019.3  754  286           
06 19.08.17 310 (СЗ) 20000 м    10/8 1000 м средняя 
[Cu Sc|Ac trans]
+17.2 +9.7 61 +19  1019.1  -0.1  754  284           
09 19.08.17 270 (З) 1{13}  20000 м  {ливн. осадки}  10/8 1000 м кучево-дожд., средняя, верхняя 
[Cb cap|Ac trans|Cs]
+17.1 +7 51 +19  1019.1  754  285           
12 19.08.17 330 (СЗ) 20000 м  {ливн. осадки}  6/4 1000 м средняя 
[Cu med, cong|Ac trans]
+18.9 +5.6 42 +19  1019.4  0.3  754  283    +19.7     
15 19.08.17 тихо ()   20000 м    3/3 1000 м 
[Sc diur, vesp]
+11.6 +9 84 +12  1020.9  1.2  755  290           
18 19.08.17 тихо ()   4000 м  дымка  ясно 
+9.2 +8.4 95 +9  1021.5  0.5  755  293           
21 19.08.17 тихо ()   4000 м  дымка  ясно 
+8.1 +7 93 +8  1021.9  0.3  755  294           
00 20.08.17 тихо ()   10 км    9/0 средняя 
[Sc|Ac trans]
+7.8 +6.7 93 +8  1022.1  0.2  755  295  +7.2        влажная 
03 20.08.17 тихо ()   10 км    10/0 средняя, верхняя 
[Ac As|Ci fib]
+14 +9.9 76 +15  1022.9  756  288           
06 20.08.17 350 (С) 20000 м    8/4 1000 м средняя, верхняя 
[Cu med, cong|Ac trans|Cc]
+18.8 +7.6 48 +20  1022.1  -0.5  756  284           
09 20.08.17 270 (З) 10 км    8/5 1000 м кучево-дожд., средняя, верхняя 
[Cb cap|Ac trans|Ci fib]
+17.8 +6.9 49 +18  1021.2  -0.9  755  285           
12 20.08.17 320 (СЗ) 2{11}  20000 м  {ливн. осадки}  5/3 1000 м кучево-дожд., средняя 
[Cb cap|Ac lent]
+18.6 +8.8 53 +20  1021.1  -0.1  755  283    +20.5  0.4     
15 20.08.17 тихо ()   20000 м    3/3 1000 м средняя 
[Sc|Ac lent]
+11.9 +9.3 84 +12  1022.1  0.6  755  290           
18 20.08.17 тихо ()   4000 м  дымка  ясно 
+9.9 +8.9 93 +10  1022.6  0.4  756  292           
21 20.08.17 180 (Ю) 4000 м  дымка  ясно 
+8.8 +7.9 94 +10  1022.1  -0.5  755  294           
Время (UTC), дата Ветер
(°,м/с) 
Видим.   Явления Облачность Т
(°С)
Тd
(°С)
f(%) Тe
(°С)
Pmin
(гПа)
dP
(гПа)
Po
(мм)
O2
(г/м3)
Тmin Tmax R s Состояние
почвы

Для получения пояснительной информации подведите курсор к названию столбца.

ПОГОДА Баево - архив

Всё, что Вы хотите узнать о погоде Баево - удобно и подробно!

Выберите нужную дату (начиная с 1 января 2015* года) и нажмите кнопку "Найти".
Будут отображены архивные сводки погоды по пункту Баево, начиная с указанной даты.


Отображать данные в формате CSV (для использования в таблицах Excel)


Внимание! Наш архив погоды предназначен исключительно для личного некоммерческого использования в познавательных целях. Если Вам необходимы официальные справки о состоянии погоды (для производственных, юридических, коммерческих и т.п. целей), обращайтесь в органы Росгидромета.

*Примечание: данная дата относится к архиву по метеостанциям СССР (Россия, СНГ, Балтия).
Архив по метеостанциям Зарубежной Европы и Азии (кроме Китая) хранится 10 дней, по другим регионам земного шара (Китай, Африка, Америка, Австралия, Океания) - 1 день.

Баево - район местоположения метеостанции


Название, широта, долгота, высота метеостанции:
Баево 53.3°ш. 80.8°д. 122 м над ур. моря [Российская Федерация]

Дополнительная информация

В oтличие oт бoльшинства пoгoдных сайтoв мы публикуем пoдрoбную метеoинфoрмацию в детальнoм прoфессиoнальнoм фoрмате.

Характеристики температуры и влажнoсти вoздуха измеряются на высoте 2 м в тени вдали oт зданий и деревьев.
Скoрoсть ветра измеряется на высoте 10 м (на урoвне рoста челoвека скoрoсть ветра ниже в 1.5-2 раза). Если метеoстанция нахoдится в гoрoде или в лесу, тo скoрoсть ветра занижена на 2-4 м/с пo сравнению с oткрытым местoм. Скoрoсть ветра над акватoриями крупных рек и oзёр, а также на вершинах хoлмoв на 2-5 м/с выше, чем в oбычных услoвиях.
Атмoсфернoе давление в разных тoчках местнoсти мoжет значительнo oтличаться oт давления на метеoстанции, в зависимoсти oт услoвий рельефа (при пoдъёме на 10 м давление пoнижается примернo на 1 мм рт.ст.).